Location: Partizánske
(48.6285°N, 18.3769°E)
Time: 17:25:44
(UTC+02:00)

Vanguard 3 - All Passes

Search period start: 29 June 2022 00:00
Search period end: 09 July 2022 00:00
Orbit: 507 x 3258 km, 33.4° (Epoch: 28 June)

Date Brightness Start Highest point End Pass type
(mag) Time Alt. Az. Time Alt. Az. Time Alt. Az.
29 Jun - 12:01:46 10° SSW 12:15:40 29° SE 12:30:31 10° E daylight
29 Jun - 14:11:59 10° SW 14:29:33 45° SSE 14:45:46 10° ESE daylight
29 Jun - 16:26:00 10° WSW 16:44:12 47° S 16:58:13 10° ESE daylight
29 Jun - 18:42:38 10° W 18:57:19 31° SSW 19:07:54 10° SSE daylight
30 Jun - 10:49:40 10° S 11:00:01 19° SE 11:11:32 10° E daylight
30 Jun - 12:56:51 10° SW 13:12:50 39° SSE 13:29:25 10° E daylight
30 Jun - 15:09:11 10° WSW 15:27:26 49° S 15:43:14 10° ESE daylight
30 Jun - 17:24:27 10° W 17:41:38 40° SSW 17:54:30 10° SE daylight
30 Jun - 19:42:54 10° W 19:53:33 20° SW 20:01:49 10° S daylight
01 Jul - 11:42:54 10° SSW 11:56:34 30° SE 12:12:03 10° E daylight
01 Jul - 13:53:13 10° SW 14:10:29 46° SSE 14:27:29 10° ESE daylight
01 Jul - 16:07:03 10° WSW 16:25:15 47° SSW 16:40:09 10° SE daylight
01 Jul - 18:23:34 10° W 18:38:33 30° SW 18:49:50 10° SSE daylight
02 Jul - 10:30:35 10° S 10:40:59 21° SE 10:53:09 10° E daylight
02 Jul - 12:38:11 10° SW 12:53:44 41° SSE 13:10:53 10° E daylight
02 Jul - 14:50:25 10° WSW 15:08:23 49° S 15:24:59 10° ESE daylight
02 Jul - 17:05:28 10° W 17:22:44 40° SSW 17:36:23 10° SE daylight
02 Jul - 19:24:06 10° W 19:34:46 19° SW 19:43:24 10° S daylight
03 Jul - 09:22:46 10° SE 09:26:09 11° SE 09:29:44 10° ESE daylight
03 Jul - 11:24:17 10° SSW 11:37:31 32° SSE 11:53:22 10° E daylight
03 Jul - 13:34:38 10° SW 13:51:23 47° S 14:09:01 10° ESE daylight
03 Jul - 15:48:14 10° WSW 16:06:14 46° SSW 16:21:56 10° SE daylight
03 Jul - 18:04:38 10° W 18:19:38 29° SW 18:31:33 10° SSE daylight
04 Jul - 10:11:48 10° S 10:22:01 22° SE 10:34:31 10° E daylight
04 Jul - 12:19:45 10° SW 12:34:40 42° SSE 12:52:13 10° E daylight
04 Jul - 14:31:49 10° WSW 14:49:18 49° S 15:06:34 10° ESE daylight
04 Jul - 16:46:37 10° W 17:03:44 39° SSW 17:18:05 10° SE daylight
04 Jul - 19:05:27 10° W 19:15:54 18° SW 19:24:42 10° SSW daylight
05 Jul - 09:02:45 10° SE 09:07:17 12° SE 09:12:20 10° ESE daylight
05 Jul - 11:05:53 10° SSW 11:18:31 33° SSE 11:34:32 10° E daylight
05 Jul - 13:16:14 10° WSW 13:32:18 48° S 13:50:22 10° ESE daylight
05 Jul - 15:29:36 10° WSW 15:47:10 45° SSW 16:03:31 10° SE daylight
05 Jul - 17:45:49 10° W 18:00:39 28° SW 18:13:04 10° SSE daylight
06 Jul - 09:53:19 10° S 10:03:08 23° SE 10:15:42 10° E daylight
06 Jul - 12:01:29 10° SW 12:15:38 43° SSE 12:33:22 10° E daylight
06 Jul - 14:13:24 10° WSW 14:30:13 49° S 14:48:00 10° ESE daylight
06 Jul - 16:27:55 10° W 16:44:39 37° SSW 16:59:37 10° SSE daylight
06 Jul - 18:47:02 10° W 18:56:57 17° SW 19:05:40 10° SSW daylight
07 Jul - 08:43:34 10° SSE 08:48:32 13° SE 08:54:15 10° ESE daylight
07 Jul - 10:47:41 10° SSW 10:59:36 34° SSE 11:15:33 10° E daylight
07 Jul - 12:58:00 10° WSW 13:13:16 48° S 13:31:35 10° ESE daylight
07 Jul - 15:11:06 10° W 15:28:03 44° SSW 15:44:55 10° SE daylight
07 Jul - 17:27:11 10° W 17:41:36 26° SW 17:54:20 10° S daylight
08 Jul - 09:35:04 10° S 09:44:22 24° SE 09:56:45 10° E daylight
08 Jul - 11:43:24 10° SW 11:56:43 43° SSE 12:14:23 10° E daylight
08 Jul - 13:55:07 10° WSW 14:11:09 48° S 14:29:14 10° ESE daylight
08 Jul - 16:09:24 10° W 16:25:33 35° SSW 16:40:54 10° SSE daylight
08 Jul - 18:28:58 10° WSW 18:37:56 15° SW 18:46:10 10° SSW daylight
